Location: Elaine Barite Prospect
(34.1431°N, 106.7922°W)
Time: 06:48:43
(UTC+00:00)

SL-4 R/B - Pass Details

Date: 13 December 2025
Orbit: 386 x 521 km, 51.6° (Epoch: 12 January)

Event Time Altitude Azimuth Distance (km) Brightness Sun altitude
Exits shadow 13:12:16 10° 332° (NNW) 1,435 3.7 -10.7°
Maximum altitude 13:15:10 31° 37° (NE) 709 2.8 -10.1°
Drops below altitude 10° 13:18:01 10° 102° (ESE) 1,406 5.7 -9.6°
Sets 13:20:11 0° 113° (ESE) 2,253 7.6 -9.1°
